Regional Weather Roundup
Issued by NWS

Home | Current Version | Previous Version | Text Only | Print | Product List | Glossary Off
Versions: 1 2 3 4 5 6 7 8 9 10 11 12 13 14 15 16 17 18 19 20 21 22 23 24 25 26 27 28 29 30 31 32 33 34 35 36 37 38 39 40 41 42 43 44 45 46 47 48 49 50

000
ASUS45 KCYS 051610
RWRWY

WYOMING REGIONAL WEATHER ROUNDUP
NATIONAL WEATHER SERVICE CHEYENNE WY
1000 AM MDT SUN JUL 05 2015

NOTE:  "FAIR" INDICATES FEW OR NO CLOUDS BELOW 12,000 FEET
WITH NO SIGNIFICANT WEATHER AND/OR OBSTRUCTIONS TO VISIBILITY.

WYZ001-051700-
YELLOWSTONE NATIONAL PARK

CITY           SKY/WX    TMP DP  RH WIND       PRES   REMARKS
LK YELLOWSTONE   N/A     62  45  53 MISG      30.22R
W YELLOWSTONE  NOT AVBL

$$
WYZ002>013-054>058-071-098>099-051700-
NORTHERN WYOMING

CITY           SKY/WX    TMP DP  RH WIND       PRES   REMARKS
JACKSON        FAIR      70  48  46 S10G17    30.12R
CODY           CLOUDY    59  52  77 N17G24    30.09R
GREYBULL       FAIR      69  54  58 NW31G40   29.92R HAZE
WORLAND        FAIR      68  55  63 NW15      29.98R HAZE
SHERIDAN       CLOUDY    61  54  77 NW22G30   30.05R
BUFFALO        CLOUDY    58  54  86 N25G40    30.04R
GILLETTE       CLOUDY    64  59  83 N20G29    29.96R
HULETT         FAIR      77  59  53 NE14G20   29.93R
NEWCASTLE      FAIR      79  55  44 MISG      29.89S

$$
WYZ014>020-022>026-101>103-051700-
CENTRAL WYOMING

CITY           SKY/WX    TMP DP  RH WIND       PRES   REMARKS
BIG PINEY      CLOUDY    66  49  54 W10       30.19R
PINEDALE       PTSUNNY   64  45  48 N6        30.19R
DUBOIS         PTSUNNY   64  41  42 NW9G17    30.13S
LANDER         CLOUDY    74  47  38 N3        30.01R
RIVERTON       PTSUNNY   73  51  46 NE14      29.99S
CASPER         FAIR      82  50  32 W13G23    29.98R
DOUGLAS        FAIR      85  54  34 NW9       29.92S

$$
WYZ021-027>030-104>119-051700-
SOUTHERN WYOMING

CITY           SKY/WX    TMP DP  RH WIND       PRES   REMARKS
EVANSTON       CLOUDY    61  55  81 SW6       30.22R
KEMMERER       LGT RAIN  57  55  94 NW6       30.23S
FORT BRIDGER   CLOUDY    64  55  72 NW5       30.24R
ROCK SPRINGS   CLOUDY    70  51  51 W16       30.17R
DIXON          DRIZZLE   65  56  72 SW6       30.23S
RAWLINS        CLOUDY    71  50  47 SW22G29   30.14S
SARATOGA       PTSUNNY   70  50  49 SE5       30.18S
LARAMIE        FAIR      77  48  35 W10       30.13F
CHEYENNE       FAIR      83  51  33 W13       30.03S
TORRINGTON     FAIR      81  59  47 VRB3      29.86F
PINE BLUFFS    FAIR      82  50  32 W6        29.97F

$$



USA.gov is the U.S. government's official web portal to all federal, state and local government web resources and services.